Date String (YYYY-MM-DD hh:mm:ss) UTC,Instrument flags,Ambient pressure (hPa),Sample flow (lpm),Bypass flow (lpm),Sample temperature (°C),Ambient temperature (°C),ASC tube jacket temperature (°C),LED temperature (°C),Box temperature (°C),Sample RH (%),Span deviation,Mass concentration (μg/m³),Mass concentration (μg/m³),Mass concentration (μg/m³)
DateTimeUTC,F1_M11,P_M11,Q1_M11,Q2_M11,T1_M11,T2_M11,T3_M11,T4_M11,T5_M11,U1_M11,ZSPAN_M11,X0_M11,X2_M11,X1_M11
2022-06-16 04:00:00,,0827.5,5.01,0.00,29.4,27.4,00.0,38.2,31.1,09.0,0000.0,0005.39,0002.42,0001.79
2022-06-16 04:01:00,,0827.6,5.01,0.00,29.4,27.3,00.0,38.2,31.1,09.0,0000.0,0005.53,0002.43,0001.79
2022-06-16 04:02:00,,0827.6,4.99,0.00,29.3,27.4,00.0,38.2,31.1,09.0,0000.0,0005.47,0002.40,0001.78
2022-06-16 04:03:00,,0827.5,4.99,0.00,29.3,27.5,00.0,38.2,31.1,09.0,0000.0,0005.54,0002.40,0001.77
2022-06-16 04:04:00,,0827.6,5.01,0.00,29.3,27.7,00.0,38.2,31.2,09.0,0000.0,0005.47,0002.38,0001.79
2022-06-16 04:05:00,,0827.6,5.00,0.00,29.3,27.8,00.0,38.2,31.2,09.0,0000.0,0005.48,0002.40,0001.80
2022-06-16 04:06:00,,0827.6,5.00,0.00,29.3,28.0,00.0,38.2,31.3,08.9,0000.0,0005.23,0002.44,0001.80
2022-06-16 04:07:00,,0827.7,5.00,0.00,29.4,28.1,00.0,38.2,31.3,08.8,0000.0,0005.19,0002.41,0001.81
2022-06-16 04:08:00,,0827.7,5.01,0.00,29.4,28.2,00.0,38.2,31.3,08.8,0000.0,0005.12,0002.39,0001.81
2022-06-16 04:09:00,,0827.7,4.99,0.00,29.4,28.3,00.0,38.2,31.4,08.8,0000.0,0003.93,0002.38,0001.80
2022-06-16 04:10:00,,0827.7,5.00,0.00,29.4,28.4,00.0,38.3,31.4,08.7,0000.0,0003.92,0002.41,0001.83
2022-06-16 04:11:00,,0827.7,4.99,0.00,29.5,28.5,00.0,38.3,31.5,08.7,0000.0,0004.09,0002.44,0001.82
2022-06-16 04:12:00,,0827.7,5.01,0.00,29.5,28.6,00.0,38.3,31.5,08.6,0000.0,0004.11,0002.47,0001.83
2022-06-16 04:13:00,,0827.7,5.01,0.00,29.5,28.7,00.0,38.3,31.6,08.6,0000.0,0004.49,0002.49,0001.83
2022-06-16 04:14:00,,0827.7,4.99,0.00,29.6,28.7,00.0,38.3,31.6,08.5,0000.0,0004.50,0002.48,0001.84
2022-06-16 04:15:00,,0827.7,4.99,0.00,29.6,28.4,00.0,38.3,31.5,08.4,0000.0,0004.50,0002.49,0001.84
2022-06-16 04:16:00,,0827.7,5.01,0.00,29.5,27.6,00.0,38.3,31.2,08.3,0000.0,0004.77,0002.53,0001.82
2022-06-16 04:17:00,,0827.7,5.00,0.00,29.4,27.4,00.0,38.2,31.2,08.3,0000.0,0005.83,0002.54,0001.82
2022-06-16 04:18:00,,0827.7,4.99,0.00,29.4,27.4,00.0,38.2,31.2,08.3,0000.0,0006.76,0002.57,0001.83
2022-06-16 04:19:00,,0827.7,5.02,0.00,29.4,27.5,00.0,38.2,31.2,08.3,0000.0,0006.97,0002.59,0001.84
2022-06-16 04:20:00,,0827.7,4.99,0.00,29.3,27.6,00.0,38.2,31.2,08.3,0000.0,0008.08,0002.74,0001.87
2022-06-16 04:21:00,,0827.7,5.00,0.00,29.3,27.8,00.0,38.2,31.2,08.2,0000.0,0008.35,0002.76,0001.86
2022-06-16 04:22:00,,0827.8,5.00,0.00,29.4,27.9,00.0,38.2,31.3,08.2,0000.0,0008.32,0002.78,0001.87
2022-06-16 04:23:00,,0827.8,4.99,0.00,29.4,28.1,00.0,38.2,31.3,08.1,0000.0,0008.33,0002.79,0001.89
2022-06-16 04:24:00,,0827.8,4.99,0.00,29.4,28.2,00.0,38.2,31.3,08.1,0000.0,0008.17,0002.78,0001.91
2022-06-16 04:25:00,,0827.8,5.01,0.00,29.4,28.3,00.0,38.3,31.4,08.1,0000.0,0008.14,0002.83,0001.92
2022-06-16 04:26:00,,0827.7,5.00,0.00,29.5,28.4,00.0,38.3,31.4,08.1,0000.0,0008.35,0002.89,0001.92
2022-06-16 04:27:00,,0827.8,4.99,0.00,29.5,28.5,00.0,38.3,31.5,08.2,0000.0,0008.41,0002.94,0001.94
2022-06-16 04:28:00,,0827.8,5.00,0.00,29.5,28.6,00.0,38.3,31.5,08.2,0000.0,0007.91,0002.98,0001.94
2022-06-16 04:29:00,,0827.8,5.00,0.00,29.5,28.7,00.0,38.3,31.5,08.2,0000.0,0007.62,0003.03,0001.96
2022-06-16 04:30:00,,0827.8,4.99,0.00,29.6,28.7,00.0,38.3,31.6,08.4,0000.0,0008.13,0003.13,0001.96
2022-06-16 04:31:00,,0827.9,5.01,0.00,29.6,28.7,00.0,38.4,31.6,08.6,0000.0,0007.64,0003.11,0001.98
2022-06-16 04:32:00,,0827.8,4.99,0.00,29.6,27.8,00.0,38.3,31.4,08.7,0000.0,0007.32,0003.11,0001.99
2022-06-16 04:33:00,,0827.8,5.01,0.00,29.5,26.8,00.0,38.2,31.1,08.9,0000.0,0007.41,0003.10,0001.99
2022-06-16 04:34:00,,0827.8,5.00,0.00,29.4,26.6,00.0,38.2,31.0,09.2,0000.0,0007.40,0003.11,0001.99
2022-06-16 04:35:00,,0827.7,5.00,0.00,29.3,26.7,00.0,38.2,30.9,09.3,0000.0,0007.39,0003.10,0001.97
2022-06-16 04:36:00,,0827.7,5.01,0.00,29.2,26.8,00.0,38.1,30.9,09.4,0000.0,0007.26,0003.05,0001.97
2022-06-16 04:37:00,,0827.7,5.00,0.00,29.2,27.0,00.0,38.1,31.0,09.6,0000.0,0007.16,0003.01,0001.97
2022-06-16 04:38:00,,0827.7,4.99,0.00,29.2,27.2,00.0,38.1,31.0,09.8,0000.0,0007.07,0002.98,0001.97
2022-06-16 04:39:00,,0827.7,5.00,0.00,29.2,27.4,00.0,38.1,31.0,09.9,0000.0,0006.92,0002.92,0001.99
2022-06-16 04:40:00,,0827.7,4.99,0.00,29.2,27.6,00.0,38.1,31.1,09.9,0000.0,0006.88,0002.89,0001.99
2022-06-16 04:41:00,,0827.7,5.00,0.00,29.2,27.7,00.0,38.1,31.1,09.8,0000.0,0006.88,0002.86,0001.99
2022-06-16 04:42:00,,0827.8,5.00,0.00,29.2,27.9,00.0,38.1,31.1,09.7,0000.0,0006.57,0002.87,0001.99
2022-06-16 04:43:00,,0827.8,5.00,0.00,29.2,28.0,00.0,38.1,31.2,09.6,0000.0,0006.51,0002.87,0001.98
2022-06-16 04:44:00,,0827.7,5.00,0.00,29.2,28.1,00.0,38.1,31.2,09.5,0000.0,0006.47,0002.94,0001.99
2022-06-16 04:45:00,,0827.7,5.00,0.00,29.3,28.2,00.0,38.1,31.2,09.6,0000.0,0006.50,0002.97,0002.01
2022-06-16 04:46:00,,0827.8,5.00,0.00,29.3,28.2,00.0,38.1,31.3,09.5,0000.0,0006.66,0003.04,0002.01
2022-06-16 04:47:00,,0827.8,4.99,0.00,29.3,28.3,00.0,38.1,31.3,09.6,0000.0,0006.84,0003.06,0002.02
2022-06-16 04:48:00,,0827.8,5.00,0.00,29.4,28.4,00.0,38.2,31.3,09.6,0000.0,0006.96,0003.13,0002.03
2022-06-16 04:49:00,,0827.8,5.00,0.00,29.4,28.4,00.0,38.2,31.4,09.6,0000.0,0007.48,0003.19,0002.03
2022-06-16 04:50:00,,0827.8,5.01,0.00,29.4,28.5,00.0,38.2,31.4,09.6,0000.0,0007.55,0003.20,0002.02
2022-06-16 04:51:00,,0827.9,5.00,0.00,29.4,28.5,00.0,38.2,31.4,09.6,0000.0,0007.82,0003.23,0002.01
2022-06-16 04:52:00,,0827.8,4.99,0.00,29.5,28.6,00.0,38.2,31.5,09.6,0000.0,0007.03,0003.23,0002.00
2022-06-16 04:53:00,,0827.9,5.00,0.00,29.5,28.6,00.0,38.3,31.5,09.6,0000.0,0007.30,0003.21,0002.00
2022-06-16 04:54:00,,0827.9,5.00,0.00,29.5,28.7,00.0,38.3,31.5,09.6,0000.0,0007.48,0003.23,0002.01
2022-06-16 04:55:00,,0827.9,4.99,0.00,29.6,28.7,00.0,38.3,31.6,09.5,0000.0,0007.59,0003.22,0002.01
2022-06-16 04:56:00,,0827.9,5.00,0.00,29.6,28.7,00.0,38.3,31.6,09.4,0000.0,0007.78,0003.24,0002.01
2022-06-16 04:57:00,,0827.8,5.01,0.00,29.6,28.4,00.0,38.3,31.5,09.3,0000.0,0008.18,0003.22,0002.01
2022-06-16 04:58:00,,0827.9,5.00,0.00,29.5,27.5,00.0,38.3,31.3,09.3,0000.0,0008.25,0003.24,0002.01
2022-06-16 04:59:00,,0827.9,4.99,0.00,29.5,27.2,00.0,38.2,31.2,09.4,0000.0,0008.20,0003.21,0002.01
